This is the latest recevied weather packets stored in our database for station/object F5MAP-5. If no packets are shown the sender has not sent any weather packets the latest 1 day(s).
| Time | Temp. | Humidity | Pressure | Rain* | Wind** | Luminosity | Snow |
|---|---|---|---|---|---|---|---|
| 1777999931 | 16.67° C | 85% | 1007.6 hPa | 0 mm | 2.68 m/s, 268° | 44 W/m² | - |
| 1777999331 | 16.67° C | 85% | 1007.8 hPa | 0 mm | 2.68 m/s, 219° | 39 W/m² | - |
| 1777998731 | 16.67° C | 85% | 1007.7 hPa | 0 mm | 2.24 m/s, 204° | 72 W/m² | - |
| 1777998130 | 16.67° C | 85% | 1007.7 hPa | 0 mm | 2.68 m/s, 183° | 86 W/m² | - |
| 1777997531 | 16.11° C | 86% | 1007.6 hPa | 0 mm | 2.68 m/s, 225° | 116 W/m² | - |
| 1777996930 | 16.67° C | 86% | 1007.6 hPa | 0 mm | 2.24 m/s, 216° | 130 W/m² | - |
| 1777996331 | 16.67° C | 87% | 1007.6 hPa | 0 mm | 2.24 m/s, 209° | 135 W/m² | - |
| 1777995731 | 16.67° C | 87% | 1007.6 hPa | 0 mm | 2.24 m/s, 209° | 120 W/m² | - |
| 1777995131 | 16.67° C | 88% | 1007.6 hPa | 0 mm | 1.79 m/s, 184° | 137 W/m² | - |
| 1777994531 | 16.67° C | 86% | 1007.6 hPa | 0 mm | 1.79 m/s, 174° | 207 W/m² | - |
| 1777993931 | 16.67° C | 85% | 1007.8 hPa | 0 mm | 1.79 m/s, 223° | 190 W/m² | - |
| 1777993330 | 16.67° C | 83% | 1007.7 hPa | 0 mm | 1.34 m/s, 213° | 156 W/m² | - |
| 1777992731 | 17.22° C | 82% | 1007.7 hPa | 0 mm | 0.89 m/s, 263° | 109 W/m² | - |
| 1777992131 | 17.78° C | 80% | 1007.6 hPa | 0 mm | 0.89 m/s, 260° | 63 W/m² | - |
| 1777991531 | 18.33° C | 78% | 1007.6 hPa | 0 mm | 0.89 m/s, 288° | 30 W/m² | - |
| 1777990930 | 18.89° C | 75% | 1008 hPa | 0 mm | 1.34 m/s, 273° | 12 W/m² | - |
| 1777990330 | 19.44° C | 72% | 1008.2 hPa | 0 mm | 3.58 m/s, 269° | 9 W/m² | - |
| 1777989730 | 19.44° C | 65% | 1007.5 hPa | 0 mm | 0.45 m/s, 188° | 56 W/m² | - |
| 1777989131 | 19.44° C | 66% | 1007.5 hPa | 0 mm | 1.34 m/s, 190° | 120 W/m² | - |
| 1777988531 | 20° C | 64% | 1007.4 hPa | 0 mm | 0.45 m/s, 81° | 193 W/m² | - |
| 1777987931 | 20.56° C | 64% | 1007.5 hPa | 0 mm | 0.45 m/s, 219° | 118 W/m² | - |
| 1777987330 | 20.56° C | 65% | 1007.7 hPa | 0 mm | 0 m/s | 295 W/m² | - |
| 1777986730 | 20.56° C | 64% | 1007.7 hPa | 0 mm | 0.45 m/s, 261° | 355 W/m² | - |
| 1777986130 | 20.56° C | 66% | 1007.9 hPa | 0 mm | 0.45 m/s, 272° | 352 W/m² | - |
| 1777985530 | 20° C | 67% | 1007.9 hPa | 0 mm | 0.89 m/s, 188° | 882 W/m² | - |
* Rain latest hour (hover to see other rain measurements)
** Current wind speed in m/s (hover to see current wind gust speed)